TimeCDT,TemperatureF,Dew PointF,Humidity,Sea Level PressureIn,VisibilityMPH,Wind Direction,Wind SpeedMPH,Gust SpeedMPH,PrecipitationIn,Events,Conditions,WindDirDegrees,DateUTC
12:53 AM,36.0,33.1,89,30.14,10.0,NNE,3.5,-,N/A,,Scattered Clouds,30,2013-05-06 05:53:00
1:53 AM,33.1,30.0,89,30.14,10.0,Calm,Calm,-,N/A,,Partly Cloudy,0,2013-05-06 06:53:00
2:53 AM,34.0,32.0,92,30.13,10.0,Calm,Calm,-,N/A,,Partly Cloudy,0,2013-05-06 07:53:00
3:53 AM,30.9,30.0,96,30.13,10.0,Calm,Calm,-,N/A,,Partly Cloudy,0,2013-05-06 08:53:00
4:53 AM,30.9,28.9,92,30.14,10.0,Calm,Calm,-,N/A,,Partly Cloudy,0,2013-05-06 09:53:00
5:53 AM,32.0,30.0,92,30.14,10.0,NNE,3.5,-,N/A,,Clear,30,2013-05-06 10:53:00
6:53 AM,35.1,33.1,92,30.15,10.0,Calm,Calm,-,N/A,,Clear,0,2013-05-06 11:53:00
7:53 AM,41.0,36.0,82,30.16,10.0,Calm,Calm,-,N/A,,Clear,0,2013-05-06 12:53:00
8:53 AM,48.9,37.9,66,30.16,10.0,Calm,Calm,-,N/A,,Clear,0,2013-05-06 13:53:00
9:53 AM,55.0,39.9,57,30.14,10.0,Calm,Calm,-,N/A,,Clear,0,2013-05-06 14:53:00
10:53 AM,61.0,41.0,48,30.14,10.0,Calm,Calm,-,N/A,,Clear,0,2013-05-06 15:53:00
11:53 AM,64.9,41.0,42,30.12,10.0,Calm,Calm,-,N/A,,Clear,0,2013-05-06 16:53:00
12:53 PM,68.0,41.0,37,30.11,10.0,Calm,Calm,-,N/A,,Clear,0,2013-05-06 17:53:00
1:53 PM,70.0,42.1,36,30.09,10.0,Variable,3.5,-,N/A,,Clear,0,2013-05-06 18:53:00
2:53 PM,72.0,41.0,33,30.07,10.0,Calm,Calm,-,N/A,,Clear,0,2013-05-06 19:53:00
3:53 PM,73.0,39.9,30,30.06,10.0,SE,9.2,-,N/A,,Clear,140,2013-05-06 20:53:00
4:53 PM,73.0,39.0,29,30.04,10.0,SSW,5.8,-,N/A,,Clear,210,2013-05-06 21:53:00
5:53 PM,72.0,39.0,30,30.04,10.0,Calm,Calm,-,N/A,,Clear,0,2013-05-06 22:53:00
6:53 PM,69.1,39.0,33,30.04,10.0,Calm,Calm,-,N/A,,Clear,0,2013-05-06 23:53:00
7:53 PM,61.0,42.1,50,30.04,10.0,Calm,Calm,-,N/A,,Clear,0,2013-05-07 00:53:00
8:53 PM,57.0,43.0,59,30.05,10.0,Calm,Calm,-,N/A,,Clear,0,2013-05-07 01:53:00
9:53 PM,48.9,41.0,74,30.06,10.0,NNE,3.5,-,N/A,,Clear,30,2013-05-07 02:53:00
10:53 PM,44.1,39.9,85,30.07,10.0,Calm,Calm,-,N/A,,Clear,0,2013-05-07 03:53:00
11:53 PM,41.0,37.0,86,30.07,10.0,Calm,Calm,-,N/A,,Clear,0,2013-05-07 04:53:00